Overview Statistics Trail Chart Weather Telemetry Raw packets
 

This is the latest recevied weather packets stored in our database for station/object N5ATR. If no packets are shown the sender has not sent any weather packets the latest 10 day(s).

<< 24 25 26 27 28 29 30 >>
Time Temp. Humidity Pressure Rain* Wind** Luminosity Snow
1788527470 18.33° C 62% 1022.2 hPa 0 mm - 11 W/m² -
1788527169 18.33° C 62% 1021.8 hPa 0 mm - 8 W/m² -
1788526864 18.33° C 62% 1021.9 hPa 0 mm - 6 W/m² -
1788526561 18.33° C 62% 1021.7 hPa 0 mm - 4 W/m² -
1788526260 18.33° C 61% 1021.4 hPa 0 mm - 3 W/m² -
1788525956 18.33° C 61% 1021.7 hPa 0 mm - 2 W/m² -
1788525652 18.33° C 61% 1021.7 hPa 0 mm - 1 W/m² -
1788525352 18.33° C 61% 1021.8 hPa 0 mm - 1 W/m² -
1788525047 17.78° C 62% 1021.8 hPa 0 mm - 0 W/m² -
1788524742 17.22° C 63% 1021.5 hPa 0 mm - 0 W/m² -
1788524437 17.22° C 64% 1021.5 hPa 0 mm - 0 W/m² -
1788524132 17.22° C 64% 1021.5 hPa 0 mm - 0 W/m² -
1788523828 17.22° C 64% 1021.5 hPa 0 mm - 0 W/m² -
1788523524 17.78° C 64% 1021.4 hPa 0 mm - 0 W/m² -
1788523219 17.78° C 64% 1021.5 hPa 0 mm - 0 W/m² -
1788522915 17.78° C 63% 1021.4 hPa 0 mm - 0 W/m² -
1788522615 17.78° C 63% 1021.4 hPa 0 mm - 0 W/m² -
1788522310 18.33° C 62% 1021.4 hPa 0 mm - 0 W/m² -
1788522005 18.33° C 62% 1021.7 hPa 0 mm - 0 W/m² -
1788521704 18.89° C 61% 1021.5 hPa 0 mm - 0 W/m² -
1788521404 19.44° C 58% 1021.2 hPa 0 mm - 0 W/m² -
1788521099 19.44° C 58% 1021.4 hPa 0 mm - 0 W/m² -
1788520795 19.44° C 59% 1021.5 hPa 0 mm - 0 W/m² -
1788520490 19.44° C 59% 1021.3 hPa 0 mm - 0 W/m² -
1788520186 19.44° C 59% 1021.4 hPa 0 mm - 0 W/m² -

* Rain latest hour (hover to see other rain measurements)
** Current wind speed in m/s (hover to see current wind gust speed)